Flag for India Weather past 2 weeks in Jaipur, Rajasthan, India

Now
55 °F

Passing clouds.


Feels Like: 55 °F
Forecast: 44 / 69 °F
Wind: No wind

Location: Jaipur / Sanganer

Current Time: Dec 18, 2014 at 9:57:10 PM

Latest Report: Dec 18, 2014 at 9:00 PM


Visibility: 1 mi

Pressure: 30.18 "Hg

Humidity: 59%

Dew point: 41 °F

Location of JaipurLocation

Historic Weather in Jaipur — Graph

°F

Jaipur temperature yesterday

Maximum temperature yesterday: 70 °F (at 2:00 PM)
Minimum temperature yesterday: 46 °F (at 5:00 AM)
Average temperature yesterday: 58 °F

Past Weeks' High & Low Weather Summary

 TemperatureHumidityPressure
High84 °F (Dec 4, 2:00 PM)100% (Dec 14, 8:00 AM)30.24 "Hg (Dec 14, 8:00 AM)
Low45 °F (Dec 18, 6:00 AM)12% (Dec 11, 3:00 PM)29.71 "Hg (Dec 12, 3:00 PM)
Average64 °F51%30.07 "Hg
* Reported Dec 3 8:00 PM — Dec 18 8:00 PM, Jaipur, Weather by CustomWeather, © 2014

Note: Actual official high and low records may vary slightly from our data, if they occured in-between our weather recording intervals... More about our weather records

Advertising

Jaipur weather history for previous 24 hours

 ConditionsComfort  
Time TempWeatherWind HumidityBarometerVisibility
8:00 PM
Dec 18
57 °FPassing clouds.No wind55%30.15 "Hg1 mi
7:00 PM63 °FPassing clouds.No wind42%30.15 "Hg1 mi
6:00 PM64 °FScattered clouds.No wind37%30.12 "Hg1 mi
5:00 PM68 °FScattered clouds.3 mph33%30.12 "Hg2 mi
4:00 PM70 °FScattered clouds.1 mph29%30.12 "Hg2 mi
3:00 PM70 °FScattered clouds.3 mph31%30.12 "Hg2 mi
2:00 PM70 °FScattered clouds.5 mph31%30.12 "Hg2 mi
1:00 PM70 °FScattered clouds.2 mph31%30.15 "Hg2 mi
12:00 PM66 °FHaze.5 mph35%30.18 "Hg2 mi
11:30 AM64 °FHaze.5 mph37%30.21 "Hg2 mi
10:30 AM64 °FHaze.5 mph43%30.21 "Hg1 mi
10:00 AM61 °FHaze.5 mph48%30.21 "Hg1 mi
9:00 AM57 °FFog.2 mph59%30.21 "Hg1 mi
8:30 AM52 °FFog.No wind77%30.21 "Hg1 mi
8:00 AM48 °FFog.No wind82%30.18 "Hg1 mi
7:30 AM46 °FFog.No wind87%30.18 "Hg1 mi
6:00 AM45 °FFog.No wind87%30.12 "Hg1 mi
5:30 AM46 °FFog.No wind82%30.12 "Hg1 mi
5:00 AM48 °FFog.No wind82%30.12 "Hg1 mi
4:00 AM46 °FFog.No wind87%30.12 "Hg1 mi
3:00 AM48 °FFog.No wind94%30.12 "Hg1 mi
2:00 AM48 °FFog.No wind82%30.12 "Hg1 mi
1:00 AM50 °FFog.No wind76%30.12 "Hg1 mi
12:00 AM52 °FFog.No wind72%30.12 "Hg1 mi
11:00 PM
Dec 17
54 °FHaze.No wind72%30.12 "Hg1 mi
10:00 PM57 °FClear.No wind59%30.12 "Hg1 mi
9:00 PM55 °FClear.No wind59%30.15 "Hg1 mi
Weather by CustomWeather, © 2014

See weather overviewHow to use our weather pages